Skip Page Navigation
NASA JPL Caltech
NASA Logo - Jet Propulsion Laboratory + View the NASA Portal
+ Near-Earth Object (NEO) Program
Search JPL
JPL Home Earth Solar System Stars & Galaxies Technology
JPL Solar System Dynamics
BODIES ORBITS EPHEMERIDES TOOLS PHYSICAL DATA DISCOVERY FAQ SITE MAP
JPL Small-Body Database Browser
Search: [ help ]  
37817 (1998 BV2)
Classification: Main-belt Asteroid          SPK-ID: 2037817
Ephemeris | Orbit Diagram | Orbital Elements | Physical Parameters | Discovery Circumstances | Close-Approach Data ]

[ show orbit diagram ]
Orbital Elements at Epoch 2457000.5 (2014-Dec-09.0) TDB
Reference: JPL 10 (heliocentric ecliptic J2000)
 Element Value Uncertainty (1-sigma)   Units 
e .1488917597491908 5.9881e-08  
a 2.423364547669959 1.4923e-08 AU
q 2.062545535653577 1.4521e-07 AU
i 1.934415782468637 6.611e-06 deg
node 45.93524392383569 0.00015283 deg
peri 42.95469709742385 0.0001542 deg
M 197.2847581874099 2.0279e-05 deg
tp 2457623.305282142640
(2016-Aug-22.80528214)
7.907e-05 JED
period 1377.928085124243
3.77
1.2728e-05
3.485e-08
d
yr
n .2612618204726845 2.4133e-09 deg/d
Q 2.784183559686341 1.7145e-08 AU
  Orbit Determination Parameters
   # obs. used (total)      735  
   data-arc span      8833 days (24.18 yr)  
   first obs. used      1991-04-14  
   last obs. used      2015-06-20  
   planetary ephem.      DE431  
   SB-pert. ephem.      SB431-BIG16  
   condition code      0  
   fit RMS      .56876  
   data source      ORB  
   producer      Otto Matic  
   solution date      2015-Jul-06 12:59:04  

Additional Information
 Earth MOID = 1.0792 AU 
 T_jup = 3.496 
[ show covariance matrix ]

Ephemeris | Orbit Diagram | Orbital Elements | Physical Parameters | Discovery Circumstances | Close-Approach Data ]

Physical Parameter Table
Parameter Symbol Value Units Sigma Reference Notes
absolute magnitude H 14.9 mag n/a MPO263662  

37817 (1998 BV2)          Discovered 1998-Jan-19 by Shimizu, Y., Urata, T. at Nachi-Katsuura
Reference: 20020328/Numbers.arcLast Updated: 2004-04-19

[ show close-approach data ]
Ephemeris | Orbit Diagram | Orbital Elements | Physical Parameters | Discovery Circumstances | Close-Approach Data ]
ABOUT SSD CREDITS/AWARDS PRIVACY/COPYRIGHT GLOSSARY LINKS
FirstGov 2015-Jul-30 06:09 UT
(server date/time)  
NASA Home Page
Site Manager:   Ryan S. Park
Webmaster  Alan B. Chamberlin